Location: Berua Church
(35.0423°N, 88.5987°W)
Time: 19:43:18
(UTC+00:00)

Cosmos 1536 - Pass Details

Date: 08 December 2019
Orbit: 540 x 559 km, 82.5° (Epoch: 21 January)

Event Time Altitude Azimuth Distance (km) Brightness Sun altitude
Rises 23:21:00 0° 3° (N) 2,728 6.1 -8.0°
Reaches altitude 10° 23:23:19 10° 12° (NNE) 1,826 5.2 -8.4°
Maximum altitude 23:27:02 36° 79° (E) 882 3.4 -9.1°
Drops below altitude 10° 23:30:42 10° 147° (SSE) 1,804 5.3 -9.8°
Sets 23:32:58 0° 156° (SSE) 2,689 6.3 -10.3°
